Station ACYN4 - 8534720 - Atlantic City, NJ Image indicating link to RSS feed of recent meteorological observations for station ACYN4


Conditions at ACYN4 as of
(1:18 pm EDT)
1718 GMT on 06/16/2024:
     

Click on the graph icon in the table below to see a time series plot of the last five days of that observation.

5-day plot - Atmospheric Pressure Atmospheric Pressure (PRES):30.19 in
5-day plot - Air Temperature Air Temperature (ATMP): 66.9 °F
5-day plot - Water Temperature Water Temperature (WTMP): 65.5 °F
NOS Water Level Observation Network Water Level
Previous observations
TIME
(EDT)
5-day plot - Wind Direction
WDIR
 
5-day plot - Wind Speed
WSPD
kts
5-day plot - Wind Gust
GST
kts
5-day plot - Wave Height
WVHT
ft
5-day plot - Dominant Wave Period
DPD
sec
5-day plot - Average Wave Period
APD
sec
5-day plot - Mean Wave Direction
MWD
 
5-day plot - Atmospheric Pressure
PRES
in
5-day plot - Pressure Tendency
PTDY
in
5-day plot - Air Temperature
ATMP
°F
5-day plot - Water Temperature
WTMP
°F
5-day plot - Dew Point
DEWP
°F
5-day plot - Salinity
SAL
psu
5-day plot - Visibility
VIS
nmi
5-day plot - Tide (above MLLW)
TIDE
ft
2024-06-16 01:12 pm-------30.19- 66.9 65.3----
2024-06-16 01:06 pm-------30.19- 66.9 64.8----
2024-06-16 01:00 pm-------30.19+0.02 67.3 65.1----
2024-06-16 12:54 pm-------30.19- 67.3 65.1----
2024-06-16 12:48 pm-------30.19-- 64.9----
2024-06-16 12:42 pm-------30.19-- 65.3----
2024-06-16 12:36 pm-------30.19-- 64.9----
2024-06-16 12:30 pm-------30.19-- 64.6----
2024-06-16 12:24 pm-------30.19-- 64.6----
2024-06-16 12:18 pm-------30.19- 67.1-----
2024-06-16 12:12 pm-------30.19- 67.5-----
2024-06-16 12:06 pm-------30.19- 67.5-----
2024-06-16 12:00 pm-------30.19+0.02 67.6 64.4----
2024-06-16 11:54 am-------30.19- 68.0 64.2----
2024-06-16 11:48 am-------30.19-- 64.2----
2024-06-16 11:42 am-------30.19-- 64.2----
2024-06-16 11:36 am-------30.19-- 64.0----
2024-06-16 11:30 am-------30.19- 67.6 64.0----
2024-06-16 11:24 am-------30.19- 67.5 64.0----
2024-06-16 11:18 am-------30.19-- 64.0----
2024-06-16 11:12 am-------30.19-- 63.9----
2024-06-16 11:06 am-------30.19-- 63.9----
2024-06-16 11:00 am-------30.19+0.04 67.5 63.9----
2024-06-16 10:54 am-------30.18- 67.6 63.9----
2024-06-16 10:48 am-------30.18-- 63.9----
2024-06-16 10:42 am-------30.18-- 63.9----
2024-06-16 10:36 am-------30.18-- 63.9----
2024-06-16 10:30 am-------30.18-- 63.9----
2024-06-16 10:24 am-------30.18-- 63.9----
2024-06-16 10:18 am-------30.18- 67.3 63.9----
2024-06-16 10:12 am-------30.18- 67.3 63.9----
2024-06-16 10:06 am-------30.17- 67.1 63.7----
2024-06-16 10:00 am-------30.18+0.05- 63.7----
2024-06-16 09:54 am-------30.17-- 63.7----
2024-06-16 09:48 am-------30.17- 67.1 63.7----
2024-06-16 09:42 am-------30.17- 67.1 63.7----
2024-06-16 09:36 am-------30.17- 66.7 63.7----
2024-06-16 09:30 am-------30.17- 66.2 63.7----
2024-06-16 09:24 am-------30.18- 66.2 63.7----
2024-06-16 09:18 am-------30.17-- 63.9----
2024-06-16 09:12 am-------30.17-- 63.9----
2024-06-16 09:06 am-------30.17-- 63.9----
2024-06-16 09:00 am-------30.17+0.05 69.1 63.9----
2024-06-16 08:54 am-------30.17- 68.7 63.9----
2024-06-16 08:48 am-------30.16- 68.0 63.9----
2024-06-16 08:42 am-------30.16- 67.8 63.9----
2024-06-16 08:36 am-------30.16- 67.5 63.9----
2024-06-16 08:30 am-------30.16- 66.6 63.9----
2024-06-16 08:24 am-------30.16- 66.4 63.9----
2024-06-16 08:18 am-------30.16- 66.4 63.9----
2024-06-16 08:12 am-------30.15- 66.0 63.9----
2024-06-16 08:06 am-------30.15- 65.5 64.0----
2024-06-16 08:00 am-------30.15+0.05 65.8 64.0----
2024-06-16 07:54 am-------30.15- 66.0 64.0----
2024-06-16 07:48 am-------30.15- 66.2 64.2----
2024-06-16 07:42 am-------30.15- 65.7 64.0----
2024-06-16 07:36 am-------30.14- 65.5 64.0----
2024-06-16 07:30 am-------30.14- 65.7 64.2----
2024-06-16 07:24 am-------30.14- 65.8 64.0----
2024-06-16 07:18 am-------30.14-- 64.2----
2024-06-16 07:12 am-------30.14-- 64.2----
2024-06-16 07:06 am-------30.13-- 64.4----
2024-06-16 07:00 am-------30.13-- 64.4----
2024-06-16 06:54 am-------30.13-- 64.4----
2024-06-16 06:48 am-------30.13-- 64.4----
2024-06-16 06:42 am-------30.13-- 64.4----
2024-06-16 06:36 am-------30.12-- 64.4----
2024-06-16 06:30 am-------30.12-- 64.4----
2024-06-16 06:24 am-------30.12-- 64.4----
2024-06-16 06:18 am-------30.12- 68.9 64.4----
2024-06-16 06:12 am-------30.12- 67.8 64.4----
2024-06-16 06:06 am-------30.12- 66.7 64.4----
2024-06-16 06:00 am-------30.12+0.03- 64.4----
2024-06-16 05:54 am-------30.11-- 64.2----
2024-06-16 05:48 am-------30.11- 65.7 64.2----
2024-06-16 05:42 am-------30.11- 65.1 64.2----
2024-06-16 05:36 am-------30.11- 64.9 64.0----
2024-06-16 05:30 am-------30.11- 64.9 63.9----
2024-06-16 05:24 am-------30.11- 64.9 63.9----
2024-06-16 05:18 am-------30.10-- 63.9----
2024-06-16 05:12 am-------30.10-- 64.0----
2024-06-16 05:06 am-------30.10-- 64.0----
2024-06-16 05:00 am-------30.10+0.02- 63.9----
2024-06-16 04:54 am-------30.10-- 63.9----
2024-06-16 04:48 am-------30.10- 65.3 63.9----
2024-06-16 04:42 am-------30.10- 65.5 63.9----
2024-06-16 04:36 am-------30.10- 65.7 63.7----
2024-06-16 04:30 am-------30.10- 65.8 63.7----
2024-06-16 04:24 am-------30.09- 65.8 63.7----
2024-06-16 04:18 am-------30.09- 65.8 63.7----
2024-06-16 04:12 am-------30.09- 66.0 63.7----
2024-06-16 04:06 am-------30.09- 66.0 63.7----
2024-06-16 04:00 am--------- 66.0 63.7----
2024-06-16 03:54 am--------- 66.4 63.7----
2024-06-16 03:48 am-------30.09- 66.6 63.7----
2024-06-16 03:42 am-------30.09- 66.7 63.7----
2024-06-16 03:36 am-------30.09- 66.6 63.7----
2024-06-16 03:30 am-------30.09- 66.4 63.7----
2024-06-16 03:24 am-------30.09- 66.2 63.5----
2024-06-16 03:18 am-------30.09- 66.2 63.5----
2024-06-16 03:12 am-------30.09- 66.4 63.5----
2024-06-16 03:06 am-------30.09- 66.2 63.5----
2024-06-16 03:00 am-------30.09+0.03 66.2 63.5----
2024-06-16 02:54 am-------30.09- 66.4 63.5----
2024-06-16 02:48 am-------30.09- 66.2 63.5----
2024-06-16 02:42 am-------30.08- 66.0 63.5----
2024-06-16 02:36 am-------30.08- 66.0 63.5----
2024-06-16 02:30 am-------30.08- 65.8 63.5----
2024-06-16 02:24 am-------30.08- 65.8 63.5----
2024-06-16 02:18 am-------30.08- 65.7 63.5----
2024-06-16 02:12 am-------30.08- 65.7 63.3----
2024-06-16 02:06 am-------30.08- 65.7 63.3----
2024-06-16 02:00 am-------30.08+0.02 65.8 63.5----
2024-06-16 01:54 am-------30.08- 65.8 63.5----
2024-06-16 01:48 am-------30.08-- 63.5----
2024-06-16 01:42 am-------30.08-- 63.5----
2024-06-16 01:36 am-------30.07-- 63.5----
2024-06-16 01:30 am--------- 65.8 63.5----
2024-06-16 01:24 am--------- 66.0 63.5----
2024-06-16 01:18 am--------- 66.0-----
2024-06-16 01:12 am--------- 66.4-----
2024-06-16 01:06 am--------- 66.7-----
2024-06-16 01:00 am-------30.06+0.02 66.7 63.7----
2024-06-16 12:54 am-------30.06- 66.9 63.7----
2024-06-16 12:48 am-------30.06- 67.1 63.7----
2024-06-16 12:42 am-------30.06- 66.9 63.7----
2024-06-16 12:36 am-------30.06- 67.1 63.7----
2024-06-16 12:30 am-------30.06- 67.3 63.7----
2024-06-16 12:24 am-------30.06- 67.3 63.7----
2024-06-16 12:18 am-------30.06-- 63.7----
2024-06-16 12:12 am-------30.06-- 63.7----
2024-06-16 12:06 am-------30.06-- 63.7----
2024-06-16 12:00 am-------30.06+0.04 68.4-----
2024-06-15 11:54 pm-------30.06- 68.5-----
2024-06-15 11:48 pm-------30.06- 68.5 63.7----
2024-06-15 11:42 pm-------30.06- 68.5 63.7----
2024-06-15 11:36 pm-------30.06- 68.5 63.7----
2024-06-15 11:30 pm-------30.06- 68.5 63.5----
2024-06-15 11:24 pm-------30.06- 68.5 63.5----
2024-06-15 11:18 pm-------30.06- 68.5 63.3----
2024-06-15 11:12 pm-------30.06- 68.5 63.1----
2024-06-15 11:06 pm-------30.06- 68.5 63.1----
2024-06-15 11:00 pm-------30.06+0.05 68.7 63.1----
2024-06-15 10:54 pm-------30.06- 68.5 63.3----
2024-06-15 10:48 pm-------30.05- 68.5 63.3----
2024-06-15 10:42 pm-------30.05- 68.5 63.5----
2024-06-15 10:36 pm-------30.06- 68.5 63.3----
2024-06-15 10:30 pm-------30.06- 68.5 63.5----
2024-06-15 10:24 pm-------30.05- 68.5 63.5----
2024-06-15 10:18 pm-------30.05- 68.5 63.3----
2024-06-15 10:12 pm-------30.05- 68.5 63.3----
2024-06-15 10:06 pm-------30.04- 68.5 63.3----
2024-06-15 10:00 pm-------30.04- 68.7 63.1----
2024-06-15 09:54 pm-------30.04- 68.4 63.1----
2024-06-15 09:48 pm-------30.04- 68.4 63.3----
2024-06-15 09:42 pm-------30.03- 68.5 63.3----
2024-06-15 09:36 pm-------30.03- 68.4 63.3----
2024-06-15 09:30 pm-------30.03-- 63.3----
2024-06-15 09:24 pm-------30.03-- 63.3----
2024-06-15 09:18 pm-------30.02- 68.4 63.3----
2024-06-15 09:12 pm-------30.02- 68.5 63.3----
2024-06-15 09:06 pm-------30.02- 68.5 63.5----
2024-06-15 09:00 pm-------30.01+0.03 68.7 63.5----
2024-06-15 08:54 pm-------30.01- 68.7 63.5----
2024-06-15 08:48 pm-------30.01- 68.9 63.7----
2024-06-15 08:42 pm-------30.01- 69.1 63.7----
2024-06-15 08:36 pm-------30.01- 69.3 63.5----
2024-06-15 08:30 pm-------30.01-- 63.7----
2024-06-15 08:24 pm-------30.01-- 63.7----
2024-06-15 08:18 pm-------30.01- 69.3 63.7----
2024-06-15 08:12 pm-------30.01- 69.4 63.7----
2024-06-15 08:06 pm-------30.01- 69.4 64.2----
2024-06-15 08:00 pm-------30.00+0.02- 64.6----
2024-06-15 07:54 pm-------30.00-- 64.8----
2024-06-15 07:48 pm-------30.00- 69.4 64.8----
2024-06-15 07:42 pm-------30.00- 69.6 64.8----
2024-06-15 07:36 pm-------30.00- 69.8 64.8----
2024-06-15 07:30 pm-------30.00- 69.8 65.1----
2024-06-15 07:24 pm-------30.00- 69.8 65.1----
2024-06-15 06:48 pm-------29.99- 70.2 65.1----
2024-06-15 06:42 pm-------29.99- 70.2 65.5----
2024-06-15 06:36 pm-------29.99- 69.8 65.3----
2024-06-15 06:30 pm-------29.99-- 65.3----
2024-06-15 06:24 pm-------29.98-- 65.3----
2024-06-15 06:18 pm-------29.98- 70.0 65.3----
2024-06-15 06:12 pm-------29.98- 70.2 65.3----
2024-06-15 06:06 pm-------29.98- 70.0 65.1----
2024-06-15 06:00 pm-------29.98+0.03------
2024-06-15 05:54 pm-------29.98-------
2024-06-15 05:48 pm-------29.98-- 64.9----
2024-06-15 05:42 pm-------29.98-- 64.8----
2024-06-15 05:36 pm-------29.98-- 64.9----
2024-06-15 05:30 pm-------29.98- 71.6-----
2024-06-15 05:24 pm-------29.98- 71.1-----
2024-06-15 05:18 pm-------29.98-- 64.9----
2024-06-15 05:12 pm-------29.98-- 64.9----
2024-06-15 05:06 pm-------29.98-- 64.9----
2024-06-15 05:00 pm-------29.98+0.01- 64.9----
2024-06-15 04:54 pm-------29.98-- 64.8----
2024-06-15 04:48 pm-------29.98- 70.2 64.9----
2024-06-15 04:42 pm-------29.98- 70.0 64.8----
2024-06-15 04:36 pm-------29.98- 70.0 64.8----
2024-06-15 04:30 pm-------29.98- 70.0 64.8----
2024-06-15 04:24 pm-------29.98- 70.7 64.8----
2024-06-15 04:18 pm-------29.97- 70.3 64.8----
2024-06-15 04:12 pm-------29.97- 70.0 64.9----
2024-06-15 04:06 pm-------29.97- 68.9 64.8----
2024-06-15 04:00 pm-------29.96+0.00- 64.8----
2024-06-15 03:54 pm-------29.96-- 64.2----
2024-06-15 03:48 pm-------29.96-- 63.3----
2024-06-15 03:42 pm-------29.96-- 63.5----
2024-06-15 03:36 pm-------29.96-- 63.5----
2024-06-15 03:30 pm-------29.96- 68.4 63.3----
2024-06-15 03:24 pm-------29.96- 68.4 63.1----
2024-06-15 03:18 pm-------29.96- 68.2 63.1----
2024-06-15 03:12 pm-------29.96- 67.8 63.3----
2024-06-15 03:06 pm-------29.96- 67.6 63.3----
2024-06-15 03:00 pm-------29.96+0.00- 63.3----
2024-06-15 02:54 pm-------29.96-- 63.3----
2024-06-15 02:48 pm-------29.96-- 63.3----
2024-06-15 02:42 pm-------29.96-- 63.3----
2024-06-15 02:36 pm-------29.96-- 63.5----
2024-06-15 02:30 pm--------- 67.8 63.5----
2024-06-15 02:24 pm--------- 67.8 63.5----
2024-06-15 02:18 pm-------29.96-- 63.5----
2024-06-15 02:12 pm-------29.96-- 63.5----
2024-06-15 02:06 pm-------29.97-- 63.7----
2024-06-15 02:00 pm-------29.97+0.02 68.0 63.7----
2024-06-15 01:54 pm-------29.97- 67.6 63.7----
2024-06-15 01:48 pm-------29.97-- 63.7----
2024-06-15 01:42 pm-------29.97-- 63.7----
2024-06-15 01:36 pm-------29.97-- 63.7----
2024-06-15 01:30 pm-------29.96- 66.9 63.7----
2024-06-15 01:24 pm-------29.96- 67.1 63.7----
2024-06-15 01:18 pm-------29.96-------
2024-06-15 01:12 pm-------29.96-------
2024-06-15 01:06 pm-------29.96-------
2024-06-15 01:00 pm-------29.96+0.04 68.4 63.7----
2024-06-15 12:54 pm-------29.96- 67.6 63.7----